{"data":{"norad_id":40554,"epoch":"2026-05-25T04:11:06.851904Z","epoch_age_seconds":63006,"freshness":"FRESH","line1":"1 40554U 15020C   26145.17438486 -.00000077  00000+0 -62984-3 0  9992","line2":"2 40554  82.4875  45.0691 0014640  25.4271 334.7526 12.42869054505848","mean_motion":12.42869054,"eccentricity":0.001464,"inclination_deg":82.4875,"raan_deg":45.0691,"arg_perigee_deg":25.4271,"mean_anomaly_deg":334.7526,"bstar":-0.00062984,"rev_number":50584,"period_min":115.86095859138,"perigee_km":1482.9388222671,"apogee_km":1505.9897989045,"semimajor_km":7872.6013105858,"source":"CELESTRAK","updated_at":"2026-05-25T13:37:55.525839Z"}}